Location: Copenhagen
(55.6670°N, 12.5830°E)
Time: 11:33:46
(UTC+02:00)

Envisat - Visible Passes

Search period start: 20 September 2024 00:00
Search period end: 30 September 2024 00:00
Orbit: 762 x 764 km, 98.3° (Epoch: 19 September)

Date Brightness Start Highest point End Pass type
(mag) Time Alt. Az. Time Alt. Az. Time Alt. Az.
20 Sep 5.4 02:59:18 10° NE 03:02:26 16° E 03:05:32 10° ESE visible
20 Sep 3.0 04:37:06 10° NNE 04:42:13 82° ESE 04:45:57 19° SSW visible
21 Sep 3.9 03:59:44 10° NNE 04:04:37 44° E 04:07:57 19° SSE visible
21 Sep 3.6 05:38:53 10° N 05:43:33 38° WNW 05:48:06 11° SW visible
22 Sep 4.9 03:22:42 10° NE 03:26:49 24° E 03:29:56 14° SE visible
22 Sep 3.0 05:01:12 10° NNE 05:06:16 68° WNW 05:10:05 18° SSW visible
23 Sep 5.6 02:46:33 10° NE 02:48:48 13° E 02:51:03 10° ESE visible
23 Sep 3.3 04:23:42 10° NNE 04:28:47 66° ESE 04:32:04 22° S visible
23 Sep 4.1 06:03:10 10° N 06:07:25 27° WNW 06:11:38 10° WSW visible
24 Sep 4.3 03:46:27 10° NNE 03:51:07 35° E 03:54:03 19° SSE visible
24 Sep 3.3 05:25:22 10° N 05:30:13 47° WNW 05:34:12 15° SW visible
25 Sep 5.2 03:09:36 10° NE 03:13:15 19° E 03:16:02 13° SE visible
25 Sep 2.9 04:47:45 10° NNE 04:52:52 84° WNW 04:56:11 22° SSW visible
26 Sep 3.6 04:10:20 10° NNE 04:15:19 53° E 04:18:10 24° SSE visible
26 Sep 3.8 05:49:37 10° N 05:54:07 33° WNW 05:58:19 11° WSW visible
27 Sep 4.7 03:33:10 10° NNE 03:37:34 29° E 03:40:08 19° SE visible
27 Sep 3.1 05:11:53 10° N 05:16:52 57° WNW 05:20:17 20° SW visible
28 Sep 5.4 02:56:37 10° NE 02:59:38 16° E 03:02:07 11° ESE visible
28 Sep 3.0 04:34:20 10° NNE 04:39:27 79° ESE 04:42:16 27° S visible
28 Sep 4.2 06:13:57 10° N 06:17:56 24° NW 06:21:54 10° WSW visible
29 Sep 4.0 03:56:59 10° NNE 04:01:49 42° E 04:04:14 26° SSE visible
29 Sep 3.5 05:36:05 10° N 05:40:47 39° WNW 05:44:23 16° WSW visible
